This is the latest recevied weather packets stored in our database for station/object CE3MXM-13. If no packets are shown the sender has not sent any weather packets the latest 10 day(s).
| Time | Temp. | Humidity | Pressure | Rain* | Wind** | Luminosity | Snow |
|---|---|---|---|---|---|---|---|
| 1777935284 | 11.11° C | 69% | 1010.7 hPa | - | - | - | - |
| 1777934984 | 11.67° C | 70% | 1010.7 hPa | - | - | - | - |
| 1777934684 | 11.67° C | 69% | 1010.8 hPa | - | - | - | - |
| 1777934384 | 11.67° C | 69% | 1010.9 hPa | - | - | - | - |
| 1777934084 | 11.67° C | 68% | 1011 hPa | - | - | - | - |
| 1777933784 | 12.22° C | 65% | 1010.8 hPa | - | - | - | - |
| 1777933484 | 12.78° C | 64% | 1010.7 hPa | - | - | - | - |
| 1777933184 | 12.78° C | 62% | 1010.8 hPa | - | - | - | - |
| 1777932884 | 13.33° C | 61% | 1010.9 hPa | - | - | - | - |
| 1777932584 | 13.89° C | 57% | 1010.6 hPa | - | - | - | - |
| 1777932283 | 14.44° C | 55% | 1010.6 hPa | - | - | - | - |
| 1777931983 | 15° C | 54% | 1010.7 hPa | - | - | - | - |
| 1777931683 | 15.56° C | 53% | 1010.6 hPa | - | - | - | - |
| 1777931383 | 16.11° C | 52% | 1010.4 hPa | - | - | - | - |
| 1777931083 | 16.67° C | 51% | 1010.4 hPa | - | - | - | - |
| 1777930783 | 17.22° C | 48% | 1010.5 hPa | - | - | - | - |
| 1777930483 | 17.78° C | 44% | 1010.5 hPa | - | - | - | - |
| 1777930183 | 18.33° C | 42% | 1010.4 hPa | - | - | - | - |
| 1777929883 | 18.33° C | 42% | 1010.4 hPa | - | - | - | - |
| 1777929282 | 19.44° C | 40% | 1010.3 hPa | - | - | - | - |
| 1777928982 | 20.56° C | 38% | 1010.3 hPa | - | - | - | - |
| 1777928682 | 21.11° C | 36% | 1010.3 hPa | - | - | - | - |
| 1777928382 | 21.67° C | 36% | 1010.5 hPa | - | - | - | - |
| 1777928082 | 21.67° C | 37% | 1010.5 hPa | - | - | - | - |
| 1777927782 | 21.11° C | 36% | 1010.5 hPa | - | - | - | - |
* Rain since midnight (hover to see other rain measurements)
** Current wind speed in m/s (hover to see current wind gust speed)